GW4058 Weather Reports


time (UTC)temp
F
wind
direction
speed
knots
gust
knots
rain 1hr
in
rain 24hr
in
rain mn
in
humidity
%
barometer
mb
20260504214429 73 4.3 9.6 0.00 0.01 0.01 39 1009.6
20260504213543 74 2.6 7.0 0.00 0.01 0.01 39 1009.7
20260504212523 75 2.6 6.1 0.00 0.01 0.01 39 1009.6
20260504211518 75 1.7 3.5 0.00 0.01 0.01 39 1009.7
20260504210518 74 2.6 5.2 0.00 0.01 0.01 39 1009.7
20260504205518 74 2.6 5.2 0.00 0.01 0.01 41 1009.7
20260504204431 75 1.7 7.0 0.00 0.01 0.01 40 1009.7
20260504203521 74 2.6 6.1 0.00 0.01 0.01 40 1009.7
20260504202521 74 1.7 5.2 0.00 0.01 0.01 40 1009.9
20260504201540 74 2.6 8.7 0.00 0.01 0.01 41 1010.2
20260504200519 74 4.3 7.8 0.00 0.01 0.01 40 1010.2
20260504195519 73 2.6 7.0 0.00 0.01 0.01 41 1010.3
20260504194536 73 3.5 7.8 0.00 0.01 0.01 41 1010.4
20260504193520 73 3.5 6.1 0.00 0.01 0.01 40 1010.7
20260504192520 73 2.6 4.3 0.00 0.01 0.01 41 1010.9
20260504191517 72 3.5 7.0 0.00 0.01 0.01 42 1011.1
20260504190519 71 4.3 7.8 0.00 0.01 0.01 43 1011.2
20260504185517 71 5.2 7.8 0.00 0.01 0.01 43 1011.4
20260504184525 71 3.5 5.2 0.00 0.01 0.01 43 1011.6
20260504183521 71 4.3 7.0 0.00 0.01 0.01 42 1011.7
20260504182517 71 4.3 8.7 0.00 0.01 0.01 42 1011.8
20260504181517 71 2.6 5.2 0.00 0.01 0.01 43 1012.0
20260504180518 70 2.6 5.2 0.00 0.01 0.01 43 1012.2
20260504175525 69 2.6 5.2 0.00 0.01 0.01 44 1012.2
20260504174524 70 3.5 5.2 0.00 0.01 0.01 43 1012.2
20260504173522 70 5.2 9.6 0.00 0.01 0.01 42 1012.4
20260504172524 69 5.2 8.7 0.00 0.01 0.01 42 1012.4
20260504171519 69 4.3 7.8 0.00 0.01 0.01 43 1012.6
20260504170516 69 5.2 7.8 0.00 0.01 0.01 43 1012.7
20260504150520 65 4.3 7.8 0.00 0.00 0.00 44 1013.9
20260504140522 62 3.5 7.0 0.00 0.00 0.00 49 1014.0
20260504130517 57 2.6 5.2 0.00 0.00 0.00 57 1014.5
20260504110558 45 1.7 4.3 0.00 0.00 0.00 81 1014.9
20260504100520 46 0.9 4.3 0.00 0.00 0.00 77 1015.0
20260504081520 43 0.0 1.7 0.00 0.00 0.00 86 1015.3
20260504080522 42 0.0 0.0 0.00 0.00 0.00 86 1015.4
20260504050542 38 0.0 0.0 0.00 0.00 0.00 87 1015.9
20260504045522 38 0.0 0.9 0.00 0.00 0.00 86 1015.9
20260504044542 39 0.0 0.9 0.00 0.00 0.00 85 1015.8
20260504043516 40 0.0 0.0 0.00 0.00 0.00 84 1015.8
20260504042518 40 0.0 1.7 0.00 0.00 0.00 84 1015.7
20260504041520 39 0.0 2.6 0.00 0.00 0.00 85 1015.8
20260504040517 40 0.9 2.6 0.00 0.00 0.00 83 1015.7
20260504035524 40 0.9 3.5 0.00 0.00 0.00 82 1015.7
20260504034518 40 0.9 3.5 0.00 0.00 0.00 79 1015.6
20260504033518 41 0.9 3.5 0.00 0.00 0.00 78 1015.6
20260504032521 41 2.6 3.5 0.00 0.00 0.00 76 1015.4
20260504031518 41 2.6 4.3 0.00 0.00 0.00 78 1015.3
20260504030521 42 1.7 4.3 0.00 0.00 0.00 75 1015.2
20260504025519 42 0.9 3.5 0.00 0.00 0.00 73 1015.2
20260504024519 43 0.9 3.5 0.00 0.00 0.00 73 1015.2
20260504023542 43 1.7 3.5 0.00 0.00 0.00 72 1015.2
20260504022522 44 0.9 2.6 0.00 0.00 0.00 69 1015.2
20260504021536 44 2.6 4.3 0.00 0.00 0.00 65 1015.1
20260504020519 45 1.7 3.5 0.00 0.00 0.00 69 1015.1
20260504015604 45 1.7 4.3 0.00 0.00 0.00 65 1015.0
20260504014537 46 0.9 3.5 0.00 0.00 0.00 63 1015.0
20260504013517 47 1.7 4.3 0.00 0.00 0.00 63 1015.1
20260504012537 48 0.9 3.5 0.00 0.00 0.00 62 1015.0
20260504011526 49 2.6 4.3 0.00 0.00 0.00 55 1014.8
20260504010522 49 2.6 3.5 0.00 0.00 0.00 54 1014.8
20260504005526 50 2.6 3.5 0.00 0.00 0.00 54 1014.7
20260504004519 52 1.7 3.5 0.00 0.00 0.00 48 1014.6
20260504003541 53 0.9 2.6 0.00 0.00 0.00 44 1014.5
20260504002518 53 1.7 3.5 0.00 0.00 0.00 45 1014.4
20260504001522 56 3.5 5.2 0.00 0.00 0.00 43 1014.3
20260504000522 57 2.6 4.3 0.00 0.00 0.00 39 1014.2
20260503235519 59 1.7 6.1 0.00 0.00 0.00 37 1014.2
20260503234537 59 4.3 7.8 0.00 0.00 0.00 36 1014.0
20260503233522 60 5.2 7.8 0.00 0.00 0.00 35 1014.0
20260503232522 60 5.2 7.8 0.00 0.00 0.00 35 1013.9
20260503231606 60 5.2 7.8 0.00 0.00 0.00 35 1013.7
20260503230516 60 5.2 7.8 0.00 0.00 0.00 35 1013.7
20260503225517 61 5.2 7.8 0.00 0.00 0.00 35 1013.7
20260503224523 61 5.2 10.4 0.00 0.00 0.00 35 1013.8
20260503223518 60 5.2 11.3 0.00 0.00 0.00 34 1013.8
20260503222522 60 5.2 10.4 0.00 0.00 0.00 34 1013.8
20260503221520 60 7.8 13.0 0.00 0.00 0.00 35 1013.7
20260503220520 60 6.1 9.6 0.00 0.00 0.00 35 1013.8
20260503215539 60 8.7 11.3 0.00 0.00 0.00 35 1013.8